Regional Weather Roundup
Issued by NWS

Home | Current Version | Previous Version | Graphics & Text | Print | Product List | Glossary Off
Versions: 1 2 3 4 5 6 7 8 9 10 11 12 13 14 15 16 17 18 19 20 21 22 23 24 25 26 27 28 29 30 31 32 33 34 35 36 37 38 39 40 41 42 43 44 45 46 47 48 49 50

000
ASUS43 KMKX 251411
RWRWI

WISCONSIN REGIONAL WEATHER ROUNDUP
NATIONAL WEATHER SERVICE MILWAUKEE/SULLIVAN WI
900 AM CDT SUN SEP 25 2016

NOTE: "FAIR" INDICATES FEW OR NO CLOUDS BELOW 12,000 FEET WITH NO
SIGNIFICANT WEATHER AND/OR OBSTRUCTIONS TO VISIBILITY.

WIZ001-002-006>008-014>016-023>028-251500-
NORTHWEST WISCONSIN

CITY           SKY/WX    TMP DP  RH WIND       PRES   REMARKS
SUPERIOR ARPT  LGT RAIN  65  64  97 S5        29.81F
ASHLAND        LGT RAIN  64  61  90 SE6       29.88F FOG
HAYWARD        CLOUDY    62  60  93 S13       29.89F FOG
SIREN          HVY RAIN  65  64  96 SW10G16   29.86S
CUMBERLAND     DRIZZLE   63  61  94 S12       29.89F
RICE LAKE      CLOUDY    64  62  94 CALM      29.91F FOG
CHETEK         NOT AVBL
LADYSMITH      LGT RAIN  63  61  94 SE8       29.94F
EAU CLAIRE     RAIN      65  63  93 SE7       29.91F FOG
MENOMONIE      CLOUDY    66  64  92 SE8       29.90F FOG
NEW RICHMOND   HVY RAIN  67  66  99 W12       29.88S
OSCEOLA        RAIN      63  63 100 SW3       29.90F
$$

WIZ003>005-009-010-017-018-251500-
NORTH CENTRAL WISCONSIN

CITY           SKY/WX    TMP DP  RH WIND       PRES   REMARKS
MANITOWISH WTR NOT AVBL
ARBOR VITAE    CLOUDY    62  60  93 SE10      29.97F
WOODRUFF       CLOUDY    62  60  93 SE10      29.97F
RHINELANDER    CLOUDY    62  61  96 S10G18    29.99F
EAGLE RIVER    CLOUDY    60  59  97 SE8       29.99F
LAND O LAKES   CLOUDY    60  57  91 SE9       30.01F
PHILLIPS       HVY RAIN  60  60 100 S8        29.95F
TOMAHAWK       CLOUDY    60  58  92 SE5       29.98F FOG
MEDFORD        LGT RAIN N/A N/A N/A S8        29.96F
MERRILL        CLOUDY    61  60  98 SE8       30.00F
$$

WIZ029-030-035-036-043>047-251500-
CENTRAL WISCONSIN

CITY           SKY/WX    TMP DP  RH WIND       PRES   REMARKS
WAUSAU         CLOUDY    61  59  93 SE10      29.98F
MOSINEE        CLOUDY    61  61 100 SE7       29.99F
MARSHFIELD     HVY RAIN  63  61  93 SE9       29.96F VSB 3/4
STEVENS POINT  CLOUDY    62  61  98 SE8       30.00F
WAUPACA        CLOUDY    67  66  98 SE7       30.01F
WAUTOMA        CLOUDY    64  63  96 SE6       30.02F
WISC RAPIDS    CLOUDY    65  63  93 S7        29.99F
CAMP DOUGLAS   MOSUNNY   65  63  94 SE9       29.95F
$$

WIZ011>013-019>022-031-037>040-048>050-251500-
NORTHEAST WISCONSIN

CITY           SKY/WX    TMP DP  RH WIND       PRES   REMARKS
ANTIGO         CLOUDY    58  58 100 SE13G20   30.02F FOG
SHAWANO        CLOUDY    66  62  86 SE6       30.03F
OCONTO         NOT AVBL
STURGEON BAY   CLOUDY    64  60  87 S16       30.08F
GREEN BAY      CLOUDY    66  65  96 SE12G20   30.05F
MANITOWOC      CLOUDY    66  61  84 SE14      30.08F
APPLETON       PTSUNNY   66  64  94 SE10      30.03F
CLINTONVILLE   NOT AVBL
OSHKOSH        PTSUNNY   67  63  87 S13       30.02F
$$

WIZ032>034-041-042-053>061-251500-
SOUTHWEST WISCONSIN

CITY           SKY/WX    TMP DP  RH WIND       PRES   REMARKS
LA CROSSE      PTSUNNY   69  65  86 S14       29.94S
SPARTA         CLOUDY    66  64  94 CALM      29.96S
VIROQUA        CLOUDY    66  66 100 S6        29.97F
BOSCOBEL       CLOUDY    72  66  81 CALM      29.96F
PRAIRIE DU CHI PTSUNNY   70  65  84 CALM      29.96R
PLATTEVILLE    MOSUNNY   70  69  97 S12       30.00F
$$

WIZ056-057-062-063-064-067-068-251500-
SOUTH CENTRAL WISCONSIN

CITY           SKY/WX    TMP DP  RH WIND       PRES   REMARKS
REEDSBURG      NOT AVBL
BARABOO/DELLS  PTSUNNY   68  63  85 S12       29.99F
LONE ROCK      MOSUNNY   70  66  87 E8        29.98F
MINERAL POINT  MOSUNNY   70  68  94 SE12      30.00F
MADISON        PTSUNNY   68  65  90 S12       30.01F
MIDDLETON      CLOUDY    70  69  94 S7        30.02S
WATERTOWN      MOSUNNY   66  66 100 SE7       30.04F
MONROE         MOSUNNY   68  64  88 S14       30.02F
JANESVILLE     MOSUNNY   70  66  88 SE10      30.04F
$$

WIZ051-052-058>065-066-070>072-251500-
SOUTHEAST WISCONSIN

CITY           SKY/WX    TMP DP  RH WIND       PRES   REMARKS
MILWAUKEE      CLOUDY    69  62  78 S13       30.08S
WAUKESHA       SUNNY     64  61  88 SE7       30.08F
MILWAUKEE/TIMM MOSUNNY   68  61  77 S8        30.08F
RACINE         SUNNY     68  60  75 S15G22    30.09F
BURLINGTON     CLOUDY    66  61  83 SE5       30.07S
KENOSHA        MOSUNNY   68  60  75 S12       30.08F
FOND DU LAC    PTSUNNY   68  63  84 S12       30.04F
SHEBOYGAN      CLOUDY    67  63  87 S13       30.08S
WEST BEND      PTSUNNY   68  63  83 SE7       30.06F
JUNEAU         MOSUNNY   66  63  90 SE9       30.05F
$$

LSZ147-162-251500-
LAKE SUPERIOR

STATION/POSITION TIME  TEMP    WIND        PRES    WAVE
                       AIR SEA DIR/SP/G            HT/PER
                 (UTC) (F)     (DEG/KT/KT) (MB)    (FT/S)
W MID LAKE BUOY  1350   63 61  150/ 10/ 12 1012.3F   2/ 4
DEVILS ISLAND    1400   63     140/ 12/ 14 1011.6F
SAXON HARBOR     1340   66     180/  7/ 15 1011.5F
$$

LMZ867-665-643>646-251500-
LAKE MICHIGAN

STATION/POSITION TIME  TEMP    WIND        PRES    WAVE
                       AIR SEA DIR/SP/G            HT/PER
                 (UTC) (F)     (DEG/KT/KT) (MB)    (FT/S)
CHAMBERS ISLAND  1300   64     120/  4/  7 1018.3F
S GREEN BAY BUOY 1400   66 66  160/ 16/ 17 1017.4S
N MID LAKE BUOY  1350   62 67  170/ 17/ 21 1018.8F   4/ 5
NORTHPORT PIER   1300   63     150/ 11/ 16 1019.3S
SISTER BAY       1308   64     130/ 11/ 14   N/A
KEWAUNEE LAKESHO 1300   65     160/ 18/ 20 1018.3F
SHEBOYGAN LAKESH 1400   64     170/ 13/ 14 1018.1F
PORT WASHINGTON  1300   64     180/  2/  3 1019.6
ATWATER BUOY     1400   63     170/ 14/ 16 1018.2F
MILWAUKEE LAKESH 1310   64     160/ 11/ 11   N/A
S MID LAKE BUOY  1350   67 72  140/ 17/ 21 1018.9S   4/ 5
KENOSHA   LAKESH 1400   65     170/ 15/ 17 1017.9F
$$

TC  - TEMPERATURE IN CELSIUS
VSB - VISIBILITY IN STATUTE MILES
WCI - WIND CHILL INDEX
HX  - HEAT INDEX




USA.gov is the U.S. government's official web portal to all federal, state and local government web resources and services.